Simultaneous Nadir Overpasses (SNOs) Predictions

Prediction of SNOs between LANDSAT-8 and METOP-B Satellite Orbit:

Table of predicted SNOs for the next 14.0 days since TLE Epoch: 5/9/2020
Index Date (LANDSAT-8) Time (LANDSAT-8) Lat,Lon (LANDSAT-8) SZA (LANDSAT-8 ) Date (METOP-B) Time (METOP-B) Lat,Lon (METOP-B) SZA (METOP-B ) Distance(km) Time Diff (sec)
1 05/11/2020 12:08:56 -81.07,-143.76 114.91 05/11/2020 12:08:09 -81.08,-143.72 114.92 1.12 47
2 05/11/2020 12:58:21 81.10, 24.26 65.14 05/11/2020 12:58:48 81.10, 24.28 65.16 0.74 27
3 05/14/2020 07:43:09 -81.08, -77.18 115.58 05/14/2020 07:42:31 -81.08, -77.14 115.59 0.79 38
4 05/14/2020 08:32:34 81.11, 90.82 64.48 05/14/2020 08:33:10 81.11, 90.82 64.49 0.23 36
5 05/17/2020 03:17:22 -81.09, -10.61 116.20 05/17/2020 03:16:53 -81.09, -10.57 116.21 0.65 29
6 05/17/2020 04:06:47 81.11, 157.36 63.84 05/17/2020 04:07:32 81.11, 157.33 63.86 0.53 45
7 05/19/2020 22:51:35 -81.10, 55.93 116.79 05/19/2020 22:51:15 -81.10, 55.97 116.80 0.68 20
8 05/19/2020 23:41:00 81.12,-136.11 63.25 05/19/2020 23:41:54 81.12,-136.16 63.27 1.01 54
9 05/22/2020 18:25:47 -81.10, 122.46 117.34 05/22/2020 18:25:36 -81.10, 122.50 117.35 0.78 11




NCC Satellite Simultaneous Nadir Overpasses (SNOs) Prediction Service
